Location: Badlands Tank
(34.7185°N, 107.0376°W)
Time: 04:34:21
(UTC+00:00)

ELECTRON KICK STAGE R/B - Visible Passes

Search period start: 19 January 2026 00:00
Search period end: 29 January 2026 00:00
Orbit: 456 x 952 km, 97.3° (Epoch: 18 January)

Date Brightness Start Highest point End Pass type
(mag) Time Alt. Az. Time Alt. Az. Time Alt. Az.
19 Jan ? 01:18:34 10° S 01:21:59 63° W 01:25:45 10° NNW visible
19 Jan ? 13:19:30 10° NNE 13:24:58 51° E 13:30:48 10° S visible
20 Jan ? 02:03:09 10° SW 02:05:24 16° W 02:07:47 10° NW visible
20 Jan ? 12:26:41 10° NE 12:30:08 16° E 12:33:41 10° SE visible
21 Jan ? 01:06:53 10° SSE 01:10:23 88° ENE 01:14:19 10° N visible
21 Jan ? 13:08:09 10° NNE 13:13:33 41° E 13:19:13 10° SSE visible
22 Jan ? 01:50:49 10° SSW 01:53:42 23° W 01:56:50 10° NW visible
22 Jan ? 12:16:07 10° ENE 12:18:36 13° E 12:21:06 10° ESE visible
23 Jan ? 00:55:14 10° SSE 00:58:46 62° ENE 01:02:48 10° N visible
23 Jan ? 12:56:50 10° NNE 13:02:04 33° E 13:07:28 10° SSE visible
24 Jan ? 01:38:40 10° SSW 01:41:58 32° W 01:45:38 10° NNW visible
24 Jan ? 13:39:25 10° NNE 13:45:18 82° ESE 13:51:25 10° S visible
25 Jan ? 12:45:35 10° NE 12:50:32 27° E 12:55:33 10° SSE visible
26 Jan ? 01:26:37 10° S 01:30:12 46° W 01:34:18 10° NNW visible
26 Jan ? 13:27:52 10° NNE 13:33:48 67° E 13:39:50 10° S visible
27 Jan ? 02:11:43 10° WSW 02:13:41 13° W 02:15:46 10° WNW visible
27 Jan ? 12:34:24 10° NE 12:38:54 22° E 12:43:25 10° SE visible
28 Jan ? 01:14:39 10° S 01:18:26 66° W 01:22:50 10° NNW visible
28 Jan ? 13:16:21 10° NNE 13:22:14 53° E 13:28:08 10° S visible
